This demonstration page uses our WeatherBlox Daily Observations layout. Learn more.

Left ArrowRight Arrow

44.89941, -97.11507

Hourly Observations for September 6, 2018

Temp ( °F °C ) Dew Point ( °F °C ) Humidity (%) Winds ( mph kmh ) Pressure ( in mb ) Visibility ( mi km ) Precip ( " mm )
12:53 am 00:53 Clear 51 10.6 47 8.3 86 86 NE 5 7 30.38 1029 10 16 0.00 0.00
1:53 am 01:53 Clear 52 11.1 44 6.7 75 75 NNE 3 6 30.38 1029 10 16 0.00 0.00
2:53 am 02:53 Clear 52 11.1 45 7.2 77 77 Calm 30.37 1029 10 16 0.00 0.00
3:53 am 03:53 Clear 48 8.9 45 7.2 89 89 N 3 6 30.38 1029 10 16 0.00 0.00
4:53 am 04:53 Clear 49 9.4 45 7.2 86 86 N 3 6 30.38 1029 10 16 0.00 0.00
5:53 am 05:53 Cloudy 48 8.9 46 7.8 93 93 N 5 7 30.40 1030 10 16 0.00 0.00
6:53 am 06:53 Mostly Clear 52 11.1 46 7.8 80 80 E 5 7 30.40 1030 10 16 0.00 0.00
7:53 am 07:53 Cloudy 54 12.2 47 8.3 77 77 ESE 6 9 30.42 1030 10 16 0.00 0.00
8:53 am 08:53 Cloudy 56 13.3 46 7.8 70 70 SE 8 13 30.41 1030 10 16 0.00 0.00
9:53 am 09:53 Cloudy 59 15 44 6.7 58 58 ESE 12 19 30.41 1030 10 16 0.00 0.00
10:53 am 10:53 Mostly Cloudy 63 17.2 48 8.9 58 58 SE 9 15 30.41 1030 10 16 0.00 0.00
11:53 am 11:53 Sunny 66 18.9 48 8.9 52 52 SSE 9 15 30.40 1030 10 16 0.00 0.00
12:53 pm 12:53 Partly Cloudy 67 19.4 48 8.9 51 51 ESE 9 15 30.38 1029 10 16 0.00 0.00
1:53 pm 13:53 Sunny 69 20.6 47 8.3 45 45 SE 9 15 30.35 1028 10 16 0.00 0.00
2:53 pm 14:53 Sunny 71 21.7 48 8.9 44 44 S 10 17 30.34 1027 10 16 0.00 0.00
3:53 pm 15:53 Sunny 71 21.7 48 8.9 44 44 SSE 9 15 30.32 1027 10 16 0.00 0.00
4:53 pm 16:53 Sunny 71 21.7 48 8.9 44 44 ESE 8 13 30.30 1026 10 16 0.00 0.00
5:53 pm 17:53 Sunny 71 21.7 46 7.8 41 41 SE 9 15 30.29 1026 10 16 0.00 0.00
6:53 pm 18:53 Sunny 68 20 48 8.9 49 49 SE 8 13 30.28 1025 10 16 0.00 0.00
7:53 pm 19:53 Sunny 65 18.3 50 10 59 59 SE 6 9 30.28 1025 10 16 0.00 0.00
8:53 pm 20:53 Clear 62 16.7 50 10 65 65 ESE 5 7 30.28 1026 10 16 0.00 0.00
9:53 pm 21:53 Clear 60 15.6 49 9.4 67 67 ESE 7 11 30.30 1026 10 16 0.00 0.00
10:53 pm 22:53 Clear 59 15 49 9.4 69 69 ESE 5 7 30.29 1026 10 16 0.00 0.00
11:53 pm 23:53 Clear 58 14.4 49 9.4 72 72 SE 7 11 30.29 1026 10 16 0.00 0.00

Powered by AerisWeather